Погода в Шарлотте

США     35°13′50″N   80°50′49″W
темп.,
°C
ветер,
м/с
пор.,
м/с
влажн.,
%
обл.,
%
осадки,
мм/ч
давл.,
гПа
погр.,
м
25 июля, вс
вс2523:00+26ю3961100 0.0 1018506
02:00+24ю396299 0.0 1017432
05:00+23юз3869100 0.0 1017386
08:00+23юз366857 0.0 1017330
11:00+28юз335342 0.0 1017882
14:00+33ююз223816 0.0 10152038
17:00+34юз2234100 0.0 10132364
20:00+31ююз124573 0.0 101341
26 июля, пн
пн2623:00+28юз385845 0.0 1014374
02:00+26ююз396637 0.0 1014388
05:00+24ююз397551 0.1 1014322
08:00+24юз388283 0.6 1015347
11:00+30юз345599 0.1 1015973
14:00+35зюз334097 0.1 10142374
17:00+23ссв41096100 8.1 1012331
20:00+23ююв2596100 46.6 1015157
27 июля, вт
вт2723:00+24зюз1293100 0.9 101580
02:00+23ююв1295100 1.0 101599
05:00+22ю11955 0.1 101531
08:00+24сз119018 0.1 1016152
11:00+29вюв006526 0.0 1017730
14:00+33ююз125195 0.0 10151463
17:00+32ссз1157100 0.2 1014560
20:00+29юв226499 0.2 101455
28 июля, ср
ср2823:00+25в248961 1.3 1015130
02:00+24юз259682 3.0 1016263
05:00+23юз159798 0.1 1016289
08:00+24сз119087 0.1 1017203
11:00+30юв11640 0.0 1017725
14:00+34вюв11462 0.0 10161741
17:00+34св223964 0.0 10142586
20:00+30ю37570 0.0 1014364
29 июля, чт
чт2923:00+27ююз27680 0.0 1015269
02:00+26ю26757 0.0 1016224
05:00+24ююз14801 0.0 1016170
08:00+25ююз2478100 0.0 1016227
11:00+30юз34575 0.0 1017869
14:00+35зюз45414 0.0 10142047
17:00+37юз353133 0.0 10122695
20:00+33ююз384299 0.0 1011303